Location: *
(43.0409°N, 0.1694°E)
Time: 22:11:20
(UTC+00:00)

SL-08 R/B - Pass Details

Date: 03 October 2023
Orbit: 947 x 992 km, 83.0° (Epoch: 04 December)

Event Time Altitude Azimuth Distance (km) Brightness Sun altitude
Exits shadow 04:00:49 - 188° (S) 2,796 6.7 -22.1°
Reaches altitude 10° 04:01:09 10° 188° (S) 2,666 6.6 -22.0°
Maximum altitude 04:07:15 85° 277° (W) 957 4.3 -21.0°
Drops below altitude 10° 04:13:23 10° 7° (N) 2,679 7.0 -19.9°
Sets 04:15:53 0° 8° (N) 3,630 7.8 -19.4°
